EW0706 Weather Reports


time (UTC)temp
C
wind
direction
speed
KPH
gust
KPH
rain 1hr
cm
rain 24hr
cm
rain mn
cm
humidity
%
barometer
mb
20260505050554 23 0.0 0.0 0.00 0.00 0.00 35 1010.0
20260505041518 23 0.0 0.0 0.00 0.00 0.00 37 1009.7
20260505040446 23 0.0 0.0 0.00 0.00 0.00 37 1009.7
20260505035445 23 0.0 0.0 0.00 0.00 0.00 36 1009.7
20260505034443 23 0.0 0.0 0.00 0.00 0.00 36 1009.4
20260505033442 23 0.0 0.0 0.00 0.00 0.00 36 1009.4
20260505032441 23 0.0 0.0 0.00 0.00 0.00 36 1009.4
20260505031440 23 0.0 0.0 0.00 0.00 0.00 36 1009.0
20260505030438 23 0.0 0.0 0.00 0.00 0.00 36 1008.7
20260505025438 23 0.0 0.0 0.00 0.00 0.00 36 1008.7
20260505024437 24 0.0 0.0 0.00 0.00 0.00 35 1008.7
20260505023436 24 0.0 0.0 0.00 0.00 0.00 35 1009.0
20260505022435 24 0.0 0.0 0.00 0.00 0.00 34 1008.7
20260505021434 24 0.0 0.0 0.00 0.00 0.00 34 1008.7
20260505020433 24 0.0 0.0 0.00 0.00 0.00 34 1008.7
20260505015432 25 0.0 0.0 0.00 0.00 0.00 33 1008.7
20260505014431 25 0.0 0.0 0.00 0.00 0.00 32 1008.7
20260505013430 25 0.0 0.0 0.00 0.00 0.00 32 1008.4
20260505012357 25 0.0 0.0 0.00 0.00 0.00 32 1008.7
20260505011355 25 0.0 0.0 0.00 0.00 0.00 32 1008.7
20260505010323 25 0.0 0.0 0.00 0.00 0.00 32 1008.7
20260505005251 26 0.0 0.0 0.00 0.00 0.00 32 1008.7
20260505004249 26 0.0 0.0 0.00 0.00 0.00 31 1008.7
20260505003216 26 0.0 0.0 0.00 0.00 0.00 31 1008.8
20260505002215 26 0.0 0.0 0.00 0.00 0.00 32 1008.8
20260505001142 26 0.0 0.0 0.00 0.00 0.00 32 1008.8
20260505000141 26 0.0 0.0 0.00 0.00 0.00 32 1008.8
20260504235140 26 0.0 0.0 0.00 0.00 0.00 32 1009.1
20260504234140 26 0.0 0.0 0.00 0.00 0.00 32 1009.1
20260504233005 25 0.0 0.0 0.00 0.00 0.00 32 1009.1
20260504232004 25 0.0 0.0 0.00 0.00 0.00 32 1009.1
20260504231003 26 0.0 0.0 0.00 0.00 0.00 32 1009.1
20260504225120 25 0.0 0.0 0.00 0.00 0.00 33 1009.1
20260504224017 25 0.0 0.0 0.00 0.00 0.00 33 1009.1
20260504223016 25 0.0 0.0 0.00 0.00 0.00 33 1009.5
20260504221944 25 0.0 0.0 0.00 0.00 0.00 33 1009.9
20260504220841 25 0.0 0.0 0.00 0.00 0.00 34 1009.9
20260504215807 25 0.0 0.0 0.00 0.00 0.00 34 1009.9
20260504214806 25 0.0 0.0 0.00 0.00 0.00 35 1010.2
20260504211359 25 0.0 0.0 0.00 0.00 0.00 34 1010.9
20260504210327 25 0.0 0.0 0.00 0.00 0.00 34 1010.9
20260504205327 25 0.0 0.0 0.00 0.00 0.00 34 1010.5
20260504204223 25 0.0 0.0 0.00 0.00 0.00 33 1010.9
20260504203120 25 0.0 0.0 0.00 0.00 0.00 34 1010.9
20260504202118 25 0.0 0.0 0.00 0.00 0.00 34 1010.9
20260504201047 25 0.0 0.0 0.00 0.00 0.00 34 1010.6
20260504200046 25 0.0 0.0 0.00 0.00 0.00 34 1010.9
20260504195014 25 0.0 0.0 0.00 0.00 0.00 35 1010.6
20260504194013 24 0.0 0.0 0.00 0.00 0.00 35 1010.6
20260504193011 25 0.0 0.0 0.00 0.00 0.00 35 1010.9
20260504192010 25 0.0 0.0 0.00 0.00 0.00 36 1011.3
20260504191009 24 0.0 0.0 0.00 0.00 0.00 36 1011.3
20260504190008 24 0.0 0.0 0.00 0.00 0.00 36 1010.9
20260504185007 24 0.0 0.0 0.00 0.00 0.00 37 1010.9
20260504184006 24 0.0 0.0 0.00 0.00 0.00 37 1010.9
20260504183005 23 0.0 0.0 0.00 0.00 0.00 37 1010.9
20260504182004 24 0.0 0.0 0.00 0.00 0.00 37 1011.3
20260504181003 24 0.0 0.0 0.00 0.00 0.00 37 1011.6
20260504180001 23 0.0 0.0 0.00 0.00 0.00 37 1011.6
20260504175000 23 0.0 0.0 0.00 0.00 0.00 37 1011.2
20260504173958 23 0.0 0.0 0.00 0.00 0.00 37 1010.6
20260504172956 23 0.0 0.0 0.00 0.00 0.00 38 1010.6
20260504171954 23 0.0 0.0 0.00 0.00 0.00 39 1011.0
20260504170922 23 0.0 0.0 0.00 0.00 0.00 39 1011.0
20260504150806 23 0.0 0.0 0.00 0.00 0.00 33 1010.4
20260504140729 22 0.0 0.0 0.00 0.00 0.00 35 1010.2
20260504130723 22 0.0 0.0 0.00 0.00 0.00 34 1010.1
20260504110535 23 0.0 0.0 0.00 0.00 0.00 32 1009.5
20260504100529 24 0.0 0.0 0.00 0.00 0.00 30 1009.6
20260504081315 25 0.0 0.0 0.00 0.00 0.00 28 1009.3
20260504080314 25 0.0 0.0 0.00 0.00 0.00 28 1009.3
20260504070308 26 0.0 0.0 0.00 0.00 0.00 27 1009.6